RH
64 59 53 46 41 39 39 40 41 42 39 38 43 44 47 67 82 69 48 39 33 31 37 39 38 45 48 44 39 31 27 32 33 27 20 21 27 27 23 27 30 31 33 34 36 36 37 41 46 54 61 60 59 61 61 60 60 62 66 63 55 52 51 49 49 50 52 53 51 50 48 48 48 49 53 54 50 48 47 48 51 51 50 48 47 56 68
61 53 47 42 39 39 41 43 44 43 37 33 37 44 55 75 85 69 47 40 43 51 58 54 48 51 53 49 46 37 29 33 35 32 27 26 30 28 26 28 28 28 30 30 31 33 34 38 45 54 61 61 63 66 65 66 65 61 63 63 58 58 58 56 54 55 58 57 53 52 50 49 53 53 51 56 57 53 50 50 53 55 56 54 55 66 77
57 50 46 42 41 43 45 47 46 41 37 31 31 47 69 83 83 67 47 44 56 67 70 64 57 55 53 53 53 46 35 32 35 37 35 34 35 34 32 32 29 27 28 26 25 30 33 36 42 50 56 59 63 66 64 65 65 64 66 64 60 60 62 63 63 64 70 71 64 62 62 58 57 56 54 58 61 59 59 61 60 60 63 62 61 71 83
54 49 45 42 44 48 48 48 45 39 35 30 30 51 80 91 83 68 51 47 58 68 69 67 63 58 53 52 54 53 43 33 30 35 38 36 35 35 34 32 31 30 31 31 28 26 26 29 34 42 49 56 60 61 61 61 57 55 58 57 56 59 61 64 67 66 69 76 73 69 68 63 60 58 56 59 61 60 61 63 63 64 68 72 71 74 82
53 48 43 43 48 51 50 47 43 39 34 28 36 64 89 91 80 66 54 49 56 64 64 60 60 58 53 49 48 49 50 43 30 25 33 36 33 34 35 34 33 32 32 33 32 28 25 24 26 32 41 50 55 56 56 55 52 49 49 50 51 55 57 59 64 65 65 67 69 67 64 60 59 60 60 61 62 61 62 66 69 71 71 75 77 79 83
51 46 44 47 51 52 49 46 43 39 33 30 47 77 88 84 76 65 57 53 54 61 62 57 54 53 50 46 42 44 50 51 36 21 24 33 31 30 34 33 31 31 30 30 32 29 29 30 29 31 37 44 51 55 56 53 50 49 50 52 52 53 56 57 59 61 60 59 61 63 63 61 60 60 62 64 66 67 69 70 73 76 76 77 78 80 86
49 47 48 51 54 53 49 45 42 39 34 34 56 79 82 81 78 65 59 60 56 56 56 50 46 47 47 41 36 41 50 51 42 30 28 36 34 31 35 33 29 29 28 28 32 32 32 37 41 39 38 40 44 49 56 56 53 52 54 57 56 53 53 55 56 55 55 56 58 59 62 65 65 66 67 68 71 75 78 76 75 77 80 80 77 77 82
49 49 52 54 56 54 48 44 41 38 36 39 59 78 80 83 80 64 59 62 55 51 49 45 42 43 44 40 33 40 50 49 46 42 39 43 39 32 36 38 35 35 32 32 36 36 33 37 42 41 39 39 38 40 47 52 52 53 55 57 58 55 50 51 54 53 51 52 55 57 62 69 73 76 77 72 70 76 81 80 78 79 81 81 79 78 79
48 50 54 56 57 53 46 41 39 39 39 44 62 79 81 81 76 65 62 58 49 47 45 40 41 36 35 37 35 41 51 49 46 43 39 42 43 37 39 42 40 40 39 39 38 33 31 34 37 37 38 38 38 37 40 44 46 48 52 55 55 54 52 50 50 51 52 54 58 60 67 76 82 85 84 77 71 75 79 79 81 82 83 83 83 84 81
48 51 56 57 55 50 43 40 40 41 41 47 66 80 79 76 70 62 59 52 44 45 40 37 43 39 32 34 34 40 48 45 41 38 32 32 36 37 39 39 39 45 47 44 39 33 32 34 33 34 35 34 32 33 34 37 39 41 46 49 50 50 51 50 49 51 53 57 62 64 69 79 88 89 85 80 77 77 77 77 79 80 81 84 86 85 82
49 53 56 57 54 49 43 41 42 41 42 52 70 77 74 72 66 59 54 45 36 37 37 41 51 47 36 32 30 34 38 34 33 35 31 29 30 28 28 28 30 40 44 41 37 35 33 31 29 30 31 29 28 29 29 31 33 34 36 39 43 45 45 46 50 53 56 62 67 67 68 76 86 86 81 78 79 79 79 80 80 79 80 83 83 81 80
52 55 56 57 55 49 45 42 42 40 41 52 68 72 69 68 64 59 56 45 34 35 41 46 50 44 32 26 26 28 30 28 30 33 33 35 32 24 24 26 26 30 34 34 33 33 31 28 27 27 26 26 26 25 24 26 29 31 32 34 38 43 42 42 47 51 56 63 68 70 74 80 83 83 79 76 77 78 81 83 82 80 82 83 81 79 80
53 55 58 57 53 47 44 42 41 38 38 47 62 66 64 64 61 58 56 49 41 45 49 47 42 35 27 25 26 26 26 27 27 28 29 30 30 26 24 25 26 26 26 26 25 26 28 30 29 29 28 27 27 28 28 31 33 35 35 35 38 43 45 44 44 47 52 59 65 73 84 87 83 81 79 77 77 78 81 84 83 82 82 84 85 83 81
54 57 58 54 48 45 43 40 40 36 32 41 54 57 54 56 59 57 56 53 48 51 55 48 37 29 26 27 28 25 24 23 22 23 26 25 28 32 28 23 24 25 23 23 24 26 30 32 31 34 36 36 37 39 38 39 43 43 40 37 37 40 46 48 45 44 49 61 73 81 85 85 84 82 79 78 80 80 81 84 84 80 79 82 86 87 85
55 56 53 48 45 44 41 38 37 33 28 34 45 48 47 52 56 57 60 59 51 50 55 51 37 29 28 30 29 28 30 29 23 24 26 22 23 29 29 26 27 27 24 26 31 34 37 40 41 43 48 54 56 53 48 47 50 49 45 41 39 38 41 47 51 52 50 57 72 82 85 87 89 86 78 76 79 78 78 81 82 79 76 77 82 86 88
53 51 48 45 44 43 39 35 33 28 25 28 37 43 46 48 51 53 58 59 49 46 52 48 35 29 30 28 24 27 33 32 26 27 28 22 22 28 30 28 29 29 28 31 38 43 44 47 53 54 56 62 66 63 59 58 57 54 49 45 44 46 45 41 48 60 61 58 64 76 86 90 91 87 79 76 78 76 75 81 84 81 77 76 79 83 87
48 47 45 44 43 40 35 30 26 24 23 25 33 40 42 43 45 47 51 51 44 41 45 40 30 29 30 27 23 25 29 26 24 33 38 31 26 28 29 29 29 30 34 38 44 48 47 50 61 66 62 61 63 64 63 64 64 61 57 54 53 60 62 51 44 50 57 60 64 72 80 86 90 91 86 82 81 79 80 87 88 83 81 81 82 85 87
44 46 45 43 42 38 31 26 22 21 21 23 32 38 36 33 35 39 46 47 40 35 35 31 28 32 33 31 26 24 26 25 24 31 35 32 29 28 29 30 33 35 36 41 47 51 55 59 63 66 66 60 60 62 63 65 68 67 64 61 57 61 66 63 56 53 53 60 66 70 78 87 93 94 90 84 82 83 86 91 90 84 84 85 86 88 88
44 45 44 43 39 33 27 22 20 21 22 26 33 38 32 27 27 32 41 43 34 30 28 23 25 32 33 30 27 23 25 29 29 29 32 32 29 28 27 30 37 39 39 43 47 50 60 66 59 58 65 64 62 66 68 71 73 71 68 65 63 63 65 65 67 68 65 66 68 70 80 89 92 92 87 80 80 84 87 89 86 84 85 86 87 88 88
44 45 43 41 36 28 23 20 18 20 23 26 32 34 29 24 23 29 40 41 32 27 27 23 25 29 28 27 29 28 27 31 31 35 42 40 30 30 35 37 41 44 45 50 54 54 61 66 58 55 64 68 68 73 76 76 78 75 72 70 68 68 67 67 72 76 72 69 70 75 84 90 89 88 87 82 83 86 86 86 87 86 85 83 83 85 86
44 45 43 39 32 25 22 21 19 20 21 23 27 29 25 22 25 31 38 39 32 28 27 24 23 24 21 22 24 23 23 27 31 35 42 39 32 40 51 49 49 56 58 58 62 63 66 67 61 59 65 70 73 76 76 79 80 74 70 72 72 69 69 70 74 75 72 73 78 83 89 92 89 89 91 89 87 85 84 88 92 91 89 88 86 86 87
43 44 41 36 30 25 23 23 24 23 23 23 25 26 24 23 26 30 34 33 28 25 24 22 20 20 20 20 21 18 18 24 30 33 36 36 35 42 49 45 45 54 58 58 63 70 70 65 60 60 64 66 69 73 72 78 83 77 72 77 78 73 72 72 73 75 80 87 91 89 90 93 92 91 90 86 83 84 86 90 91 89 87 87 86 86 86
41 41 38 33 29 26 23 23 24 25 26 26 26 25 24 23 24 27 28 27 24 24 25 25 22 21 20 19 18 17 19 24 27 29 33 37 38 40 43 42 39 43 49 57 67 73 72 66 59 59 60 59 61 64 67 76 85 84 83 88 86 78 75 74 74 76 83 91 94 91 90 92 92 89 86 83 82 84 85 84 82 81 80 80 80 80 81
38 37 34 31 28 27 25 23 24 26 27 27 25 23 23 23 24 25 26 26 27 28 29 30 27 24 21 19 17 18 22 25 25 26 29 34 35 36 37 38 38 37 38 43 49 52 53 54 53 51 54 57 58 58 62 73 83 85 89 94 89 81 78 79 78 79 84 90 91 88 86 85 82 80 80 81 80 81 80 77 75 75 76 78 79 80 80
34 32 31 29 28 27 26 25 24 25 27 26 25 25 26 26 29 33 34 33 33 32 30 28 26 22 19 17 17 20 23 24 24 24 26 28 31 33 33 33 34 34 32 32 37 39 39 41 43 44 46 51 55 56 60 68 73 76 82 89 88 84 82 82 82 83 87 87 83 78 75 72 70 69 71 72 74 74 73 71 71 70 70 71 72 73 75
29 30 29 28 27 27 26 26 25 25 26 26 25 29 32 32 33 40 43 39 35 32 29 26 23 21 19 18 17 19 21 22 22 23 23 25 28 31 30 27 27 29 33 37 40 40 39 38 38 39 41 44 46 48 55 61 62 63 67 72 73 73 72 74 78 80 80 77 72 68 67 66 65 64 64 63 62 61 60 60 59 59 59 59 59 59 61
27 28 28 26 26 26 26 25 25 27 28 27 27 29 32 34 36 40 43 40 35 32 30 28 25 22 21 20 18 17 18 20 21 21 21 23 26 26 26 27 28 29 31 33 34 35 35 35 36 36 38 41 41 41 46 51 52 52 54 57 59 59 58 60 65 69 69 66 64 62 61 61 61 60 58 57 55 54 53 51 48 45 45 45 45 46 46
26 27 26 24 24 26 27 24 24 26 27 28 29 30 32 35 37 38 39 41 41 37 33 30 28 25 23 22 20 18 16 16 18 21 22 23 24 23 24 27 30 29 25 25 28 30 30 31 34 35 36 39 41 39 41 46 48 48 51 54 57 58 55 50 51 54 55 55 54 52 50 52 53 51 51 52 51 51 52 51 47 44 42 42 42 42 42
25 24 24 23 24 27 27 24 22 24 25 28 32 34 34 35 37 38 39 42 43 39 32 29 30 30 28 25 23 19 15 14 16 19 21 21 23 23 22 25 27 27 25 25 26 26 25 27 31 34 35 39 39 36 37 43 48 49 50 50 50 51 48 43 41 43 44 44 45 45 43 44 45 44 44 45 46 47 49 50 49 48 48 47 48 49 48
23 22 22 23 25 25 25 25 24 23 26 33 39 40 38 35 35 38 41 40 39 38 35 33 35 33 28 26 26 22 17 15 16 17 18 22 25 25 24 23 24 24 24 23 22 22 22 24 28 31 33 36 36 34 36 40 45 46 46 45 44 44 43 41 40 42 43 43 45 45 44 44 44 43 41 40 41 42 43 45 45 45 46 47 47 48 48
22 22 22 23 24 24 24 27 26 25 30 42 48 48 46 40 34 36 39 39 39 40 37 33 33 30 25 24 26 24 19 17 16 16 18 22 27 28 26 25 24 24 22 21 20 21 23 24 27 29 28 28 30 32 35 39 41 41 40 40 41 43 43 43 43 44 44 45 44 44 44 43 42 41 39 38 38 37 38 40 39 39 40 41 41 42 44
22 23 22 23 23 24 24 27 27 29 37 49 52 51 50 43 35 35 39 40 40 40 35 31 31 30 25 22 23 23 21 21 21 21 21 23 26 28 27 26 24 23 22 22 23 25 28 28 29 29 26 26 29 33 35 37 39 38 38 38 40 41 42 43 43 42 42 42 42 43 43 42 39 39 39 38 37 37 36 37 37 36 37 37 37 37 39
22 23 23 23 24 25 26 29 29 31 38 46 48 47 46 40 34 37 41 40 41 40 35 31 33 33 28 23 22 23 24 25 26 27 27 26 26 25 25 25 24 22 22 23 25 27 30 30 29 29 28 28 29 33 37 38 37 36 37 38 39 40 40 40 39 39 40 40 38 39 40 40 38 37 37 36 35 35 35 35 36 36 36 36 36 37 37
23 23 23 23 23 25 28 31 32 33 38 46 48 45 41 36 34 38 40 40 41 40 34 32 34 33 29 27 27 28 29 29 28 27 28 29 29 28 26 27 27 26 25 25 25 27 29 30 28 29 29 29 30 33 36 36 35 35 37 38 37 37 37 35 33 34 36 38 37 36 37 38 37 37 38 37 36 36 35 35 35 35 35 35 36 36 38
23 24 24 23 24 27 32 35 36 38 43 48 48 42 37 35 35 37 39 39 39 37 33 32 33 32 31 32 32 30 29 29 28 27 28 29 30 28 25 25 27 28 27 26 26 27 28 29 28 29 30 31 33 33 32 32 31 32 33 34 34 33 33 33 34 35 36 37 37 38 38 39 38 38 38 37 36 36 35 35 35 35 36 37 38 38 41
24 24 24 22 24 30 35 37 40 46 49 47 43 39 37 35 37 39 39 38 39 38 34 34 34 35 36 36 33 29 28 29 28 27 29 29 29 28 26 27 29 29 27 27 27 27 28 29 30 30 30 32 33 33 33 33 33 33 33 34 34 33 33 34 36 36 37 37 38 39 38 38 38 38 37 36 36 35 35 35 36 36 37 39 40 42 44
24 23 22 23 28 35 38 37 41 48 48 43 40 39 36 35 39 41 40 39 41 39 36 39 43 41 37 34 30 27 28 28 27 26 27 27 27 27 27 27 27 28 27 26 26 27 29 30 30 29 30 31 32 34 35 34 34 34 35 34 34 35 36 37 38 38 38 38 37 36 35 34 35 36 36 37 37 36 36 37 38 37 38 41 43 45 46
23 22 24 30 37 39 37 36 39 43 42 40 40 40 38 39 42 42 40 40 41 39 38 44 48 45 37 32 29 29 30 29 27 27 27 26 27 28 27 25 26 28 30 29 28 29 30 31 31 32 32 31 32 34 35 34 34 35 34 32 32 34 36 36 37 38 38 37 35 34 34 36 37 37 36 37 38 37 37 37 37 38 40 42 44 46 47
24 25 30 40 44 41 35 34 36 37 38 40 43 45 43 44 44 41 38 39 39 39 40 43 45 46 42 35 31 31 33 31 29 27 27 26 27 27 26 26 27 30 31 30 30 33 34 35 36 37 36 36 35 36 37 38 38 37 36 33 32 33 35 36 37 39 40 39 38 38 39 38 38 38 38 37 37 37 37 37 37 39 42 42 41 41 41
29 33 39 46 47 41 33 31 32 36 40 44 47 47 46 45 43 40 38 38 37 39 42 43 42 43 42 36 31 32 34 34 31 28 27 27 28 27 26 26 27 29 30 29 30 32 33 35 37 39 39 39 39 38 38 39 38 35 33 33 33 35 37 38 36 36 37 37 36 37 38 38 37 38 40 39 38 38 38 37 38 41 43 43 41 40 39
36 41 44 45 41 34 29 29 34 40 44 46 46 45 45 45 43 40 39 40 39 39 41 42 41 40 40 37 33 34 35 35 32 29 28 28 28 27 27 26 26 28 29 28 29 31 32 34 36 38 38 38 41 41 40 39 36 33 32 32 31 31 32 32 31 32 36 38 37 37 39 41 41 40 41 41 40 40 40 38 38 42 46 47 46 44 41
40 41 40 37 31 27 27 32 37 40 41 42 43 44 45 46 45 41 41 45 45 40 40 42 43 42 41 39 37 36 36 35 32 31 31 30 29 29 29 27 27 30 31 29 29 31 31 35 40 41 39 39 43 45 44 40 37 35 32 30 30 32 33 34 34 35 37 39 40 39 40 41 42 42 43 42 41 41 41 40 40 44 47 47 45 44 43
38 36 34 31 28 27 31 34 36 36 36 37 40 43 44 44 43 41 42 44 44 41 41 44 44 42 41 41 39 38 38 36 33 32 32 31 30 30 29 28 29 33 33 32 32 32 32 38 45 44 40 40 43 44 44 43 43 42 39 35 36 41 43 42 41 40 38 39 40 39 38 40 43 43 43 41 40 41 42 42 44 46 45 41 40 42 43
34 32 32 30 28 29 33 34 32 32 34 34 35 38 40 40 41 41 42 42 42 42 43 44 43 41 41 41 39 37 37 35 34 34 34 32 31 32 31 31 33 36 34 33 33 33 35 42 46 43 39 41 43 42 43 45 46 48 45 40 38 42 44 44 43 44 43 44 45 43 41 43 45 45 43 42 43 44 44 45 46 46 42 39 40 44 44
33 30 30 30 29 28 31 32 28 28 30 30 30 32 35 35 38 41 41 41 43 44 43 42 42 41 41 40 38 36 35 35 34 34 34 32 33 34 34 33 35 36 34 34 37 38 39 42 44 41 39 41 41 42 45 47 48 48 48 44 43 44 46 45 45 46 46 45 46 45 45 45 45 45 44 45 45 45 46 47 46 43 40 40 44 46 44
31 28 28 29 28 28 29 28 25 25 27 27 28 33 35 35 38 42 41 40 42 42 41 41 41 41 40 39 37 36 36 36 35 34 33 34 36 37 36 35 36 36 36 38 42 43 44 46 46 43 41 42 43 45 47 49 48 48 47 47 47 47 47 47 47 47 46 46 46 46 46 46 46 45 46 47 46 46 46 44 40 39 40 43 45 44 42
30 27 28 29 27 26 27 26 23 24 26 26 31 40 45 44 43 43 42 42 42 40 40 42 41 39 38 38 36 35 35 35 34 34 34 36 38 38 37 36 37 38 39 42 43 43 45 49 49 44 42 44 47 49 49 47 46 45 45 46 47 48 48 49 50 49 48 48 48 48 48 47 47 47 47 47 47 48 48 43 38 39 43 47 48 46 43
31 29 31 32 27 24 25 27 25 26 28 32 39 45 48 47 44 42 41 43 42 39 40 41 40 36 36 36 34 33 34 34 34 35 36 36 37 37 37 38 39 39 40 42 41 41 46 51 49 44 43 46 49 49 48 46 45 45 45 45 47 49 50 50 50 50 49 47 46 48 49 49 47 47 47 46 46 47 47 44 41 41 43 45 46 46 43
30 29 31 32 28 25 26 28 29 31 34 40 43 43 42 43 44 41 39 39 39 37 39 39 37 35 34 34 32 33 35 34 34 35 36 36 36 35 36 39 41 41 39 39 40 45 51 53 48 44 45 48 48 46 46 46 46 46 46 47 48 49 50 51 51 50 48 46 46 49 48 44 42 44 47 48 48 47 44 41 40 39 38 38 41 43 44
28 29 29 30 30 29 26 28 33 36 35 35 36 38 39 42 42 38 36 37 37 36 36 36 35 33 34 34 33 35 35 34 33 35 37 36 35 34 37 40 41 39 38 40 45 50 52 51 47 46 47 47 45 44 45 46 46 46 47 49 50 50 50 50 50 49 48 47 47 45 40 37 39 46 49 47 43 40 37 36 37 36 36 38 42 45 47
27 27 27 29 33 32 29 32 40 43 37 32 36 42 43 41 37 35 35 37 36 35 35 34 33 33 34 36 36 36 36 34 34 35 36 35 34 34 37 39 38 38 40 46 50 51 48 47 47 47 46 44 42 43 46 47 46 45 46 49 50 49 50 50 50 49 50 50 49 46 44 44 48 51 48 42 36 34 37 42 44 41 39 42 46 47 45
25 25 28 31 35 36 35 39 46 46 41 41 46 48 44 38 36 35 35 35 35 35 35 34 33 35 37 38 37 37 36 36 35 36 36 36 35 33 35 38 41 44 47 50 50 49 47 47 47 45 43 42 43 44 46 47 47 46 47 49 49 49 50 51 51 51 51 51 51 50 50 51 51 48 44 41 41 43 47 52 54 48 43 43 46 46 44